Weather History for Baudette, MN

Change the Weather History Date:

Monday, January 21, 2013

  Actual Average Record
Temperature  
Mean Temperature -17 °F -  
Max Temperature -11 °F 19 °F 42 °F (1968)
Min Temperature -23 °F -3 °F -45 °F (1954)
Degree Days  
Heating Degree Days 82    
Moisture  
Dew Point -25 °F    
Average Humidity 72    
Maximum Humidity 83    
Minimum Humidity 58    
Precipitation  
Precipitation 0.00 in - - ()
Sea Level Pressure  
Sea Level Pressure 30.29 in    
Wind  
Wind Speed 4 mph (WNW)    
Max Wind Speed 8 mph    
Max Gust Speed -    
Visibility 9 miles    
Events Snow    
Averages and records for this station are not official NWS values.
T = Trace of Precipitation, MM = Missing Value Source: NWS Daily Summary

Daily Weather History Graph

Daily Weather History Graph

Search for Another Location

Airport:

Trip Planner

Search our weather history database for the weather conditions in past years. The results will help you decide how hot, cold, wet, or windy it might be!

Date:

Astronomy

Jan. 21, 2013 Rise Set
Actual Time 8:00 AM CST 4:59 PM CST
Civil Twilight 7:25 AM CST 5:34 PM CST
Nautical Twilight 6:47 AM CST 6:13 PM CST
Astronomical Twilight 6:09 AM CST 6:50 PM CST
Moon 12:38 PM CST (1/21) 3:30 AM CST (1/21)
Length of Visible Light 10h 08m
Length of Day
8h 58m
Waxing Gibbous, 75% of the Moon is Illuminated
Jan 21
Waxing Gibbous
Jan 26
Full
Feb 3
Last Quarter
Feb 10
New
Feb 17
First Quarter

Hourly Weather History & Observations

Time (CST) Temp. Windchill Dew Point Humidity Pressure Visibility Wind Dir Wind Speed Gust Speed Precip Events Conditions
12:53 AM -20.9 °F -31.7 °F -26.0 °F 77% 30.32 in 10.0 mi Variable 3.5 mph - N/A   Clear
1:53 AM -22.0 °F -35.6 °F -27.0 °F 77% 30.32 in 10.0 mi West 4.6 mph - N/A   Clear
2:53 AM -20.9 °F -34.3 °F -27.0 °F 73% 30.32 in 10.0 mi West 4.6 mph - N/A   Clear
3:53 AM -22.0 °F -33.0 °F -27.0 °F 77% 30.32 in 10.0 mi Variable 3.5 mph - N/A   Mostly Cloudy
4:53 AM -23.1 °F - -27.9 °F 78% 30.30 in 10.0 mi Calm Calm - N/A   Scattered Clouds
5:53 AM -23.8 °F - -27.4 °F 83% 30.18 in 10.0 mi Calm Calm - N/A   Overcast
6:53 AM -23.1 °F -34.2 °F -27.9 °F 78% 30.31 in 10.0 mi West 3.5 mph - N/A   Overcast
7:53 AM -23.1 °F -34.2 °F -27.9 °F 78% 30.30 in 10.0 mi WSW 3.5 mph - N/A   Overcast
8:53 AM -23.1 °F -34.2 °F -27.9 °F 78% 30.32 in 10.0 mi Variable 3.5 mph - N/A   Scattered Clouds
9:53 AM -20.0 °F -30.7 °F -25.1 °F 78% 30.32 in 3.0 mi Variable 3.5 mph - 0.00 in Snow Light Snow
10:53 AM -16.1 °F -32.3 °F -23.1 °F 71% 30.32 in 10.0 mi WNW 6.9 mph - 0.00 in   Mostly Cloudy
11:53 AM -15.0 °F -32.4 °F -22.0 °F 71% 30.31 in 6.0 mi WNW 8.1 mph - 0.00 in   Haze
12:53 PM -11.9 °F -28.7 °F -22.0 °F 61% 30.28 in 10.0 mi WNW 8.1 mph - N/A   Overcast
1:53 PM -11.0 °F -27.6 °F -22.0 °F 58% 30.28 in 10.0 mi WNW 8.1 mph - N/A   Mostly Cloudy
2:03 PM -11.2 °F -27.8 °F -20.2 °F 64% 30.14 in 5.0 mi West 8.1 mph - N/A   Haze
2:13 PM -11.2 °F -27.8 °F -22.0 °F 59% 30.14 in 10.0 mi West 8.1 mph - N/A   Scattered Clouds
2:53 PM -11.0 °F -26.2 °F -22.0 °F 58% 30.28 in 10.0 mi WNW 6.9 mph - N/A   Mostly Cloudy
3:53 PM -11.0 °F -26.2 °F -20.9 °F 62% 30.29 in 10.0 mi West 6.9 mph - N/A   Clear
4:53 PM -13.0 °F -27.0 °F -22.0 °F 64% 30.29 in 10.0 mi West 5.8 mph - N/A   Clear
5:53 PM -14.1 °F -28.3 °F -22.0 °F 68% 30.29 in 10.0 mi West 5.8 mph - N/A   Clear
6:53 PM -16.1 °F -28.6 °F -23.1 °F 71% 30.30 in 10.0 mi WNW 4.6 mph - N/A   Clear
7:53 PM -17.0 °F -29.7 °F -24.0 °F 70% 30.32 in 10.0 mi WNW 4.6 mph - N/A   Scattered Clouds
8:53 PM -18.9 °F -29.5 °F -25.1 °F 74% 30.32 in 10.0 mi Variable 3.5 mph - N/A   Clear
9:53 PM -20.0 °F -33.3 °F -25.1 °F 78% 30.33 in 10.0 mi WNW 4.6 mph - N/A   Clear
10:53 PM -20.9 °F -31.7 °F -26.0 °F 77% 30.33 in 10.0 mi Variable 3.5 mph - N/A   Clear
11:53 PM -22.0 °F - -26.0 °F 82% 30.34 in 10.0 mi Calm Calm - N/A   Clear